Miscellaneous Local Product
Issued by NWS Hastings, NE

Home | Current Version | Previous Version | Text Only | Print | Product List | Glossary Off
Versions: 1 2 3 4 5 6 7 8 9 10 11 12 13 14 15 16 17 18 19 20 21 22 23 24 25 26 27 28 29 30 31 32 33 34 35 36 37 38 39 40 41 42 43 44 45 46 47 48 49 50

000
AXUS43 KGID 061302
MISGRI

GID CWA HOURLY WEATHER ROUNDUP
NATIONAL WEATHER SERVICE HASTINGS NE
800 AM CDT MON JUL 06 2015

NOTE: "FAIR" INDICATES FEW OR NO CLOUDS BELOW 12,000 FEET WITH NO
SIGNIFICANT WEATHER AND/OR OBSTRUCTIONS TO VISIBILITY.

...SOUTH CENTRAL NEBRASKA...

CITY           SKY/WX    TMP DP  RH WIND       PRES   REMARKS
GRAND ISLAND   NOT AVBL
HASTINGS       NOT AVBL
KEARNEY        CLOUDY    70  66  88 N15       29.93R
ORD            NOT AVBL
AURORA         LGT RAIN  70  70 100 N5        29.90R
LEXINGTON      CLOUDY    68  66  92 N14       29.97R

...NEBRASKA PANHANDLE...

CITY           SKY/WX    TMP DP  RH WIND       PRES   REMARKS
CHADRON        NOT AVBL
ALLIANCE       CLOUDY    58  56  93 N16       30.15R FOG
SCOTTSBLUFF    NOT AVBL
SIDNEY         NOT AVBL

...WESTERN AND NORTH CENTRAL NEBRASKA...

CITY           SKY/WX    TMP DP  RH WIND       PRES   REMARKS
VALENTINE      CLOUDY    63  60  90 N13       30.07R FOG
AINSWORTH      RAIN      61  61 100 N17G25    30.05R
ONEILL         HVY RAIN  67  66  98 N10G16    29.98R
BROKEN BOW     NOT AVBL
NORTH PLATTE   NOT AVBL
MCCOOK         NOT AVBL

...EASTERN NEBRASKA...

CITY           SKY/WX    TMP DP  RH WIND       PRES   REMARKS
NORFOLK        NOT AVBL
COLUMBUS       CLOUDY    70  64  83 CALM      29.87R
ALBION         CLOUDY    69  66  89 CALM      29.92R
OMAHA EPPLEY   NOT AVBL
OFFUTT AFB     LGT RAIN  73  71  94 NE7       29.83F
MILLARD        LGT RAIN  73  70  93 CALM      29.84F
LINCOLN        NOT AVBL
NEBRASKA CITY  CLOUDY    75  66  73 N6        29.87S
BEATRICE       CLOUDY    76  68  76 SE7       29.87F
FALLS CITY     NOT AVBL

...NORTHERN KANSAS...

CITY           SKY/WX    TMP DP  RH WIND       PRES   REMARKS
GOODLAND       NOT AVBL
HILL CITY      NOT AVBL
NORTON         CLOUDY    68  64  88 NW14      29.91S
PHILLIPSBURG   SUNNY     77  66  69 N8        29.86S
SMITH CENTER   MOSUNNY   79  66  65 SE6       29.86S
HAYS           PTSUNNY   75  63  64 SW12      29.85S
RUSSELL        NOT AVBL
CONCORDIA      NOT AVBL



USA.gov is the U.S. government's official web portal to all federal, state and local government web resources and services.